Location: Marse
(42.1502°N, 110.9866°W)
Time: 16:06:31
(UTC+00:00)

Oscar 19 - Pass Details

Date: 09 July 2022
Orbit: 773 x 790 km, 98.8° (Epoch: 13 August)

Event Time Altitude Azimuth Distance (km) Brightness Sun altitude
Rises 11:09:18 0° 12° (NNE) 3,259 14.8 -7.9°
Reaches altitude 10° 11:11:37 10° 11° (N) 2,328 13.9 -7.6°
Maximum altitude 11:16:44 78° 286° (WNW) 797 10.7 -6.9°
Drops below altitude 10° 11:21:50 10° 201° (SSW) 2,316 12.6 -6.1°
Enters shadow 11:23:43 - 200° (SSW) 3,070 13.2 -5.9°
